Terug naar catalogus

DELTA 1 DEB

ActiefPO
NORAD 21271·DEBRIS·🇺🇸 United States

Gelanceerd Jun 12, 1975 vanaf Vandenberg Space Force Base

Loading…

Volgende Passages (komende 24 uur)

TLE

VersSource: Space-Track

Epoch: Sep 12, 2026, 12:52 UTC

1 21271U 75052G   26255.53615834  .00000604  00000-0  17772-2 0  9993
2 21271  99.5541 274.0773 0244279 112.9458  39.4596 13.02572607679186

Volg DELTA 1 DEB in realtime met AllMySat

Download on the App Store